Brunswick, GA

7:38 AM EDT on March 27, 2017 (GMT -0400)
Glynco Jetport

Weather History for KBQK - November, 2014

Change the Weather History Date:

Wednesday, November 5, 2014

  Actual Average Record
Temperature  
Mean Temperature 66 °F -  
Max Temperature 78 °F 74 °F 140 °F (2004)
Min Temperature 55 °F 53 °F 37 °F (1967)
Cooling Degree Days 2    
Growing Degree Days 16 (Base 50)    
Moisture  
Dew Point 59 °F    
Average Humidity 78    
Maximum Humidity 100    
Minimum Humidity 44    
Precipitation  
Precipitation 0.00 in - - ()
Sea Level Pressure  
Sea Level Pressure 30.26 in    
Wind  
Wind Speed 1 mph (ESE)    
Max Wind Speed 7 mph    
Max Gust Speed -    
Visibility 7 miles    
Events      
Averages and records for this station are not official NWS values.
T = Trace of Precipitation, MM = Missing Value Source: NWS Daily Summary

Daily Weather History Graph

Daily Weather History Graph

Search for Another Location

Airport or City:

Trip Planner

Search our weather history database for the weather conditions in past years. The results will help you decide how hot, cold, wet, or windy it might be!

Date:

Astronomy

Nov. 05, 2014 Rise Set
Actual Time 6:44 AM EST 5:33 PM EST
Civil Twilight 6:19 AM EST 5:59 PM EST
Nautical Twilight 5:50 AM EST 6:27 PM EST
Astronomical Twilight 5:22 AM EST 6:56 PM EST
Moon 4:53 PM EST (11/5) 5:14 AM EST (11/5)
Length of Visible Light 11h 39m
Length of Day
10h 49m
Waxing Gibbous, 98% of the Moon is Illuminated
Nov 5
Waxing Gibbous
Nov 6
Full
Nov 14
Last Quarter
Nov 22
New
Nov 29
First Quarter

Hourly Weather History & Observations

Time (EST) Temp. Dew Point Humidity Pressure Visibility Wind Dir Wind Speed Gust Speed Precip Events Conditions
12:15 AM 59.0 °F 57.2 °F 94% 30.29 in 1.5 mi Calm Calm - N/A   Unknown
12:35 AM 59.0 °F 57.2 °F 94% 30.29 in 1.0 mi Calm Calm - N/A   Unknown
12:55 AM 59.0 °F 55.4 °F 88% 30.30 in 0.5 mi Calm Calm - N/A   Unknown
1:15 AM 59.0 °F 57.2 °F 94% 30.29 in 0.8 mi Calm Calm - N/A   Unknown
1:35 AM 59.0 °F 55.4 °F 88% 30.29 in 0.2 mi Calm Calm - N/A   Unknown
1:55 AM 59.0 °F 55.4 °F 88% 30.28 in 0.5 mi Calm Calm - N/A   Mostly Cloudy
2:15 AM 59.0 °F 57.2 °F 94% 30.28 in 0.2 mi Calm Calm - N/A   Overcast
2:35 AM 57.2 °F 55.4 °F 94% 30.28 in 0.2 mi Calm Calm - N/A   Unknown
2:55 AM 57.2 °F 55.4 °F 94% 30.28 in 0.2 mi Calm Calm - N/A   Unknown
3:15 AM 57.2 °F 55.4 °F 94% 30.28 in 0.2 mi Calm Calm - N/A   Overcast
3:35 AM 59.0 °F 55.4 °F 88% 30.28 in 0.5 mi Calm Calm - N/A   Overcast
3:55 AM 57.2 °F 55.4 °F 94% 30.27 in 0.2 mi Calm Calm - N/A   Overcast
4:15 AM 57.2 °F 55.4 °F 94% 30.27 in 0.2 mi Calm Calm - N/A   Overcast
4:35 AM 59.0 °F 55.4 °F 88% 30.28 in 0.5 mi Calm Calm - N/A   Overcast
4:55 AM 57.2 °F 55.4 °F 94% 30.29 in 2.0 mi Calm Calm - N/A   Overcast
5:15 AM 59.0 °F 55.4 °F 88% 30.29 in 10.0 mi Calm Calm - N/A   Overcast
5:35 AM 57.2 °F 55.4 °F 94% 30.29 in 1.2 mi Calm Calm - N/A   Overcast
5:55 AM 59.0 °F 55.4 °F 88% 30.29 in 2.5 mi Calm Calm - N/A   Overcast
6:15 AM 57.2 °F 55.4 °F 94% 30.29 in 0.5 mi Calm Calm - N/A   Mostly Cloudy
6:35 AM 57.2 °F 55.4 °F 94% 30.29 in 0.2 mi Calm Calm - N/A   Unknown
6:55 AM 57.2 °F 55.4 °F 94% 30.29 in 0.2 mi Calm Calm - N/A   Mostly Cloudy
7:15 AM 55.4 °F 55.4 °F 100% 30.29 in 0.2 mi Calm Calm - N/A   Mostly Cloudy
7:35 AM 59.0 °F 57.2 °F 94% 30.30 in 7.0 mi Calm Calm - N/A   Clear
7:55 AM 60.8 °F 59.0 °F 94% 30.30 in 10.0 mi Calm Calm - N/A   Clear
8:15 AM 62.6 °F 60.8 °F 94% 30.30 in 10.0 mi Calm Calm - N/A   Clear
8:35 AM 64.4 °F 62.6 °F 94% 30.30 in 10.0 mi Calm Calm - N/A   Clear
8:55 AM 66.2 °F 64.4 °F 94% 30.30 in 10.0 mi Calm Calm - N/A   Clear
9:15 AM 68.0 °F 66.2 °F 94% 30.30 in 10.0 mi ENE 4.6 mph - N/A   Clear
9:35 AM 69.8 °F 64.4 °F 83% 30.31 in 10.0 mi East 5.8 mph - N/A   Clear
9:55 AM 73.4 °F 62.6 °F 69% 30.31 in 10.0 mi ESE 4.6 mph - N/A   Clear
10:15 AM 73.4 °F 60.8 °F 65% 30.30 in 10.0 mi ESE 4.6 mph - N/A   Clear
10:35 AM 75.2 °F 59.0 °F 57% 30.30 in 10.0 mi ESE 6.9 mph - N/A   Clear
10:55 AM 77.0 °F 59.0 °F 54% 30.30 in 10.0 mi SE 5.8 mph - N/A   Clear
11:15 AM 77.0 °F 55.4 °F 47% 30.29 in 10.0 mi SSE 5.8 mph - N/A   Clear
11:35 AM 77.0 °F 55.4 °F 47% 30.29 in 10.0 mi ESE 4.6 mph - N/A   Scattered Clouds
11:55 AM 77.0 °F 57.2 °F 50% 30.27 in 10.0 mi SE 6.9 mph - N/A   Mostly Cloudy
12:15 PM 78.8 °F 59.0 °F 51% 30.27 in 10.0 mi ENE 4.6 mph - N/A   Mostly Cloudy
12:35 PM 78.8 °F 55.4 °F 44% 30.26 in 10.0 mi Calm Calm - N/A   Scattered Clouds
12:55 PM 77.0 °F 55.4 °F 47% 30.26 in 10.0 mi ESE 5.8 mph - N/A   Mostly Cloudy
1:15 PM 77.0 °F 55.4 °F 47% 30.25 in 10.0 mi Calm Calm - N/A   Overcast
1:35 PM 77.0 °F 55.4 °F 47% 30.24 in 10.0 mi ESE 3.5 mph - N/A   Overcast
1:55 PM 77.0 °F 55.4 °F 47% 30.23 in 10.0 mi ENE 3.5 mph - N/A   Scattered Clouds
2:15 PM 77.0 °F 55.4 °F 47% 30.22 in 10.0 mi SE 4.6 mph - N/A   Clear
2:35 PM 78.8 °F 55.4 °F 44% 30.21 in 10.0 mi ESE 4.6 mph - N/A   Clear
2:55 PM 77.0 °F 55.4 °F 47% 30.21 in 10.0 mi East 4.6 mph - N/A   Mostly Cloudy
3:15 PM 77.0 °F 59.0 °F 54% 30.21 in 10.0 mi East 5.8 mph - N/A   Overcast
3:35 PM 77.0 °F 59.0 °F 54% 30.21 in 10.0 mi SE 4.6 mph - N/A   Overcast
3:55 PM 77.0 °F 59.0 °F 54% 30.20 in 10.0 mi East 5.8 mph - N/A   Overcast
4:15 PM 75.2 °F 60.8 °F 61% 30.20 in 10.0 mi East 5.8 mph - N/A   Mostly Cloudy
4:35 PM 75.2 °F 60.8 °F 61% 30.19 in 10.0 mi East 6.9 mph - N/A   Scattered Clouds
4:55 PM 73.4 °F 62.6 °F 69% 30.19 in 10.0 mi ENE 5.8 mph - N/A   Scattered Clouds
5:15 PM 71.6 °F 62.6 °F 73% 30.21 in 10.0 mi Calm Calm - N/A   Mostly Cloudy
5:35 PM 69.8 °F 62.6 °F 78% 30.21 in 10.0 mi NE 3.5 mph - N/A   Overcast
5:55 PM 69.8 °F 62.6 °F 78% 30.22 in 10.0 mi Calm Calm - N/A   Overcast
6:15 PM 69.8 °F 62.6 °F 78% 30.22 in 10.0 mi Calm Calm - N/A   Overcast
6:35 PM 68.0 °F 62.6 °F 83% 30.23 in 10.0 mi Calm Calm - N/A   Overcast
6:55 PM 68.0 °F 62.6 °F 83% 30.23 in 10.0 mi Calm Calm - N/A   Mostly Cloudy
7:15 PM 68.0 °F 62.6 °F 83% 30.24 in 10.0 mi Calm Calm - N/A   Overcast
7:35 PM 68.0 °F 62.6 °F 83% 30.24 in 10.0 mi Calm Calm - N/A   Overcast
7:55 PM 68.0 °F 62.6 °F 83% 30.24 in 10.0 mi Calm Calm - N/A   Overcast
8:15 PM 68.0 °F 62.6 °F 83% 30.24 in 10.0 mi ENE 3.5 mph - N/A   Overcast
8:35 PM 68.0 °F 62.6 °F 83% 30.24 in 10.0 mi Calm Calm - N/A   Overcast
8:55 PM 68.0 °F 62.6 °F 83% 30.24 in 10.0 mi Calm Calm - N/A   Overcast
9:15 PM 68.0 °F 62.6 °F 83% 30.23 in 10.0 mi Calm Calm - N/A   Overcast
9:35 PM 68.0 °F 62.6 °F 83% 30.23 in 10.0 mi Calm Calm - N/A   Overcast
9:55 PM 66.2 °F 62.6 °F 88% 30.23 in 10.0 mi Calm Calm - N/A   Mostly Cloudy
10:15 PM 64.4 °F 62.6 °F 94% 30.23 in 4.0 mi Calm Calm - N/A   Scattered Clouds
10:35 PM 62.6 °F 60.8 °F 94% 30.22 in 10.0 mi Calm Calm - N/A   Clear
10:55 PM 64.4 °F 60.8 °F 88% 30.22 in 10.0 mi ESE 3.5 mph - N/A   Clear
11:15 PM 64.4 °F 62.6 °F 94% 30.21 in 10.0 mi ESE 4.6 mph - N/A   Clear
11:35 PM 64.4 °F 60.8 °F 88% 30.21 in 10.0 mi Calm Calm - N/A   Clear
11:55 PM 62.6 °F 60.8 °F 94% 30.20 in 0.5 mi Calm Calm - N/A   Unknown